This is the latest recevied weather packets stored in our database for station/object KE1THD. If no packets are shown the sender has not sent any weather packets the latest 10 day(s).
| Time | Temp. | Humidity | Pressure | Rain* | Wind** | Luminosity | Snow |
|---|---|---|---|---|---|---|---|
| 1778006299 | 12.78° C | 37% | 1010.9 hPa | 0 mm | - | 235 W/m² | - |
| 1778005996 | 12.78° C | 37% | 1011.2 hPa | 0 mm | - | 278 W/m² | - |
| 1778005693 | 12.78° C | 37% | 1011 hPa | 0 mm | - | 314 W/m² | - |
| 1778005390 | 12.78° C | 38% | 1010.9 hPa | 0 mm | - | 295 W/m² | - |
| 1778005086 | 12.78° C | 37% | 1011.1 hPa | 0 mm | - | 265 W/m² | - |
| 1778004784 | 12.78° C | 37% | 1011.1 hPa | 0 mm | - | 260 W/m² | - |
| 1778004480 | 12.78° C | 38% | 1011 hPa | 0 mm | - | 273 W/m² | - |
| 1778004176 | 12.78° C | 38% | 1011.1 hPa | 0 mm | - | 282 W/m² | - |
| 1778003873 | 12.78° C | 37% | 1011 hPa | 0 mm | - | 311 W/m² | - |
| 1778003569 | 12.78° C | 38% | 1011.1 hPa | 0 mm | - | 352 W/m² | - |
| 1778003266 | 12.78° C | 37% | 1011.3 hPa | 0 mm | - | 318 W/m² | - |
| 1778002963 | 12.78° C | 38% | 1011.2 hPa | 0 mm | - | 310 W/m² | - |
| 1778002659 | 12.78° C | 38% | 1011.1 hPa | 0 mm | - | 328 W/m² | - |
| 1778002356 | 12.78° C | 38% | 1011.3 hPa | 0 mm | - | 319 W/m² | - |
| 1778002053 | 12.78° C | 37% | 1011.1 hPa | 0 mm | - | 337 W/m² | - |
| 1778001750 | 12.78° C | 38% | 1011 hPa | 0 mm | - | 340 W/m² | - |
| 1778001450 | 12.78° C | 39% | 1010.9 hPa | 0 mm | - | 349 W/m² | - |
| 1778001147 | 12.78° C | 39% | 1011 hPa | 0 mm | - | 360 W/m² | - |
| 1778000844 | 12.22° C | 38% | 1011.1 hPa | 0 mm | - | 390 W/m² | - |
| 1778000541 | 12.22° C | 39% | 1010.8 hPa | 0 mm | - | 336 W/m² | - |
| 1778000236 | 12.78° C | 39% | 1010.8 hPa | 0 mm | - | 319 W/m² | - |
| 1777999932 | 13.33° C | 39% | 1011.1 hPa | 0 mm | - | 360 W/m² | - |
| 1777999628 | 12.78° C | 39% | 1011 hPa | 0 mm | - | 475 W/m² | - |
| 1777999325 | 12.22° C | 40% | 1011.1 hPa | 0 mm | - | 571 W/m² | - |
| 1777999023 | 12.22° C | 39% | 1010.9 hPa | 0 mm | - | 423 W/m² | - |
* Rain latest hour (hover to see other rain measurements)
** Current wind speed in m/s (hover to see current wind gust speed)